| time (UTC) | temp C | wind direction | speed KPH | gust KPH | rain 1hr cm | rain 24hr cm | rain mn cm | humidity % | barometer mb |
| 20260504014521 | 11 | 217 | 0.0 | 0.0 | 0.00 | 0.00 | 0.00 | 57 | 1008.1 |
| 20260504014019 | 12 | 172 | 0.0 | 0.0 | 0.00 | 0.00 | 0.00 | 56 | 1008.0 |
| 20260504013514 | 12 | 209 | 0.0 | 0.0 | 0.00 | 0.00 | 0.00 | 54 | 1008.1 |
| 20260504013013 | 12 | 227 | 0.0 | 0.0 | 0.00 | 0.00 | 0.00 | 53 | 1008.1 |
| 20260504012511 | 12 | 174 | 0.0 | 0.0 | 0.00 | 0.00 | 0.00 | 52 | 1008.0 |
| 20260504012011 | 12 | 261 | 0.0 | 0.0 | 0.00 | 0.00 | 0.00 | 51 | 1008.1 |
| 20260504011507 | 12 | 219 | 0.0 | 0.0 | 0.00 | 0.00 | 0.00 | 52 | 1008.2 |
| 20260504011006 | 12 | 240 | 0.0 | 0.0 | 0.00 | 0.00 | 0.00 | 51 | 1008.1 |
| 20260504010509 | 12 | 205 | 0.0 | 0.0 | 0.00 | 0.00 | 0.00 | 51 | 1008.1 |
| 20260504010005 | 12 | 242 | 0.0 | 0.0 | 0.00 | 0.00 | 0.00 | 51 | 1008.1 |
| 20260504005504 | 12 | 242 | 0.0 | 0.0 | 0.00 | 0.00 | 0.00 | 52 | 1008.1 |
| 20260504005004 | 12 | 203 | 0.0 | 0.0 | 0.00 | 0.00 | 0.00 | 52 | 1007.9 |
| 20260504004508 | 12 | 232 | 0.0 | 0.0 | 0.00 | 0.00 | 0.00 | 52 | 1008.0 |
| 20260504004002 | 12 | 283 | 0.0 | 0.0 | 0.00 | 0.00 | 0.00 | 53 | 1008.0 |
| 20260504003502 | 12 | 202 | 0.0 | 0.0 | 0.00 | 0.00 | 0.00 | 54 | 1007.9 |
| 20260504003002 | 12 | 229 | 0.0 | 0.0 | 0.00 | 0.00 | 0.00 | 54 | 1007.9 |
| 20260504002502 | 12 | 234 | 0.0 | 0.0 | 0.00 | 0.00 | 0.00 | 54 | 1007.9 |
| 20260504002002 | 12 | 250 | 0.0 | 0.0 | 0.00 | 0.00 | 0.00 | 55 | 1008.0 |
| 20260504001504 | 12 | 232 | 0.0 | 0.0 | 0.00 | 0.00 | 0.00 | 56 | 1008.0 |
| 20260504001059 | 12 | 259 | 0.0 | 0.0 | 0.00 | 0.00 | 0.00 | 56 | 1008.0 |
| 20260504000558 | 12 | 273 | 0.0 | 0.0 | 0.00 | 0.00 | 0.00 | 56 | 1008.0 |
| 20260504000106 | 12 | 258 | 0.0 | 0.0 | 0.00 | 0.00 | 0.00 | 56 | 1008.1 |
| 20260503235555 | 12 | 191 | 0.0 | 0.0 | 0.00 | 0.00 | 0.00 | 56 | 1008.1 |
| 20260503235055 | 12 | 270 | 0.0 | 0.0 | 0.00 | 0.00 | 0.00 | 56 | 1008.3 |
| 20260503234555 | 12 | 230 | 0.0 | 0.0 | 0.00 | 0.00 | 0.00 | 55 | 1008.2 |
| 20260503234055 | 12 | 228 | 0.0 | 0.0 | 0.00 | 0.00 | 0.00 | 55 | 1008.3 |
| 20260503233556 | 12 | 187 | 0.0 | 0.0 | 0.00 | 0.00 | 0.00 | 55 | 1008.3 |
| 20260503233054 | 12 | 259 | 0.0 | 0.0 | 0.00 | 0.00 | 0.00 | 55 | 1008.3 |
| 20260503232552 | 12 | 265 | 0.0 | 0.0 | 0.00 | 0.00 | 0.00 | 56 | 1008.3 |
| 20260503232052 | 12 | 227 | 0.0 | 0.0 | 0.00 | 0.00 | 0.00 | 57 | 1008.3 |
| 20260503231552 | 12 | 223 | 0.0 | 0.0 | 0.00 | 0.00 | 0.00 | 58 | 1008.3 |
| 20260503231056 | 12 | 251 | 0.0 | 0.0 | 0.00 | 0.00 | 0.00 | 59 | 1008.3 |
| 20260503230555 | 12 | 264 | 0.0 | 0.0 | 0.00 | 0.00 | 0.00 | 58 | 1008.3 |
| 20260503230052 | 12 | 211 | 0.0 | 0.0 | 0.00 | 0.00 | 0.00 | 59 | 1008.4 |
| 20260503225551 | 12 | 252 | 0.0 | 0.0 | 0.00 | 0.00 | 0.00 | 59 | 1008.4 |
| 20260503225051 | 12 | 218 | 0.0 | 0.0 | 0.00 | 0.00 | 0.00 | 59 | 1008.4 |
| 20260503224559 | 12 | 202 | 0.0 | 0.0 | 0.00 | 0.00 | 0.00 | 59 | 1008.5 |
| 20260503224051 | 12 | 270 | 0.0 | 0.0 | 0.00 | 0.00 | 0.00 | 59 | 1008.5 |
| 20260503223550 | 12 | 252 | 0.0 | 0.0 | 0.00 | 0.00 | 0.00 | 58 | 1008.4 |
| 20260503223051 | 12 | 246 | 0.0 | 0.0 | 0.00 | 0.00 | 0.00 | 58 | 1008.4 |
| 20260503222550 | 12 | 257 | 0.0 | 0.0 | 0.00 | 0.00 | 0.00 | 58 | 1008.5 |
| 20260503222053 | 11 | 311 | 0.0 | 0.0 | 0.00 | 0.00 | 0.00 | 59 | 1008.5 |
| 20260503221559 | 11 | 278 | 0.0 | 0.0 | 0.00 | 0.00 | 0.00 | 60 | 1008.5 |
| 20260503221053 | 11 | 219 | 0.0 | 0.0 | 0.00 | 0.00 | 0.00 | 59 | 1008.5 |
| 20260503220550 | 11 | 190 | 0.0 | 0.0 | 0.00 | 0.00 | 0.00 | 60 | 1008.5 |
| 20260503220049 | 11 | 260 | 0.0 | 0.0 | 0.00 | 0.00 | 0.00 | 59 | 1008.4 |
| 20260503215548 | 11 | 250 | 0.0 | 0.0 | 0.00 | 0.00 | 0.00 | 60 | 1008.4 |
| 20260503215048 | 11 | 204 | 0.0 | 0.0 | 0.00 | 0.00 | 0.00 | 60 | 1008.4 |
| 20260503214548 | 11 | 252 | 0.0 | 0.0 | 0.00 | 0.00 | 0.00 | 59 | 1008.3 |
| 20260503214048 | 11 | 203 | 0.0 | 0.0 | 0.00 | 0.00 | 0.00 | 59 | 1008.3 |
| 20260503213550 | 11 | 207 | 0.0 | 0.0 | 0.00 | 0.00 | 0.00 | 59 | 1008.3 |
| 20260503213048 | 11 | 177 | 0.0 | 0.0 | 0.00 | 0.00 | 0.00 | 58 | 1008.2 |
| 20260503212548 | 11 | 266 | 0.0 | 0.0 | 0.00 | 0.00 | 0.00 | 59 | 1008.3 |
| 20260503212048 | 11 | 263 | 0.0 | 0.0 | 0.00 | 0.00 | 0.00 | 58 | 1008.2 |
| 20260503211550 | 11 | 184 | 0.0 | 0.0 | 0.00 | 0.00 | 0.00 | 58 | 1008.1 |
| 20260503211046 | 11 | 223 | 0.0 | 0.0 | 0.00 | 0.00 | 0.00 | 58 | 1008.2 |
| 20260503210547 | 11 | 264 | 0.0 | 0.0 | 0.00 | 0.00 | 0.00 | 59 | 1008.3 |
| 20260503210047 | 11 | 211 | 0.0 | 0.0 | 0.00 | 0.00 | 0.00 | 59 | 1008.2 |
| 20260503205546 | 11 | 227 | 0.0 | 0.0 | 0.00 | 0.00 | 0.00 | 59 | 1008.3 |
| 20260503205046 | 11 | 202 | 0.0 | 0.0 | 0.00 | 0.00 | 0.00 | 59 | 1008.2 |
| 20260503204601 | 11 | 219 | 0.0 | 0.0 | 0.00 | 0.00 | 0.00 | 59 | 1008.4 |
| 20260503204045 | 11 | 238 | 0.0 | 0.0 | 0.00 | 0.00 | 0.00 | 58 | 1008.4 |
| 20260503203545 | 11 | 250 | 0.0 | 0.0 | 0.00 | 0.00 | 0.00 | 57 | 1008.4 |
| 20260503203046 | 11 | 227 | 0.0 | 0.0 | 0.00 | 0.00 | 0.00 | 58 | 1008.6 |
| 20260503202545 | 11 | 231 | 0.0 | 0.0 | 0.00 | 0.00 | 0.00 | 58 | 1008.5 |
| 20260503202043 | 11 | 221 | 0.0 | 0.0 | 0.00 | 0.00 | 0.00 | 58 | 1008.6 |
| 20260503201543 | 11 | 280 | 0.0 | 0.0 | 0.00 | 0.00 | 0.00 | 57 | 1008.7 |
| 20260503201043 | 11 | 200 | 0.0 | 0.0 | 0.00 | 0.00 | 0.00 | 56 | 1008.6 |
| 20260503200542 | 11 | 222 | 0.0 | 0.0 | 0.00 | 0.00 | 0.00 | 56 | 1008.8 |
| 20260503200042 | 12 | 229 | 0.0 | 0.0 | 0.00 | 0.00 | 0.00 | 56 | 1008.8 |
| 20260503195542 | 12 | 229 | 0.0 | 0.0 | 0.00 | 0.00 | 0.00 | 56 | 1008.9 |
| 20260503195041 | 12 | 192 | 0.0 | 0.0 | 0.00 | 0.00 | 0.00 | 55 | 1008.9 |
| 20260503194545 | 12 | 250 | 0.0 | 0.0 | 0.00 | 0.00 | 0.00 | 54 | 1009.0 |
| 20260503194040 | 12 | 203 | 0.0 | 0.0 | 0.00 | 0.00 | 0.00 | 54 | 1009.0 |
| 20260503193540 | 12 | 228 | 0.0 | 0.0 | 0.00 | 0.00 | 0.00 | 53 | 1009.1 |
| 20260503193045 | 12 | 196 | 0.0 | 0.0 | 0.00 | 0.00 | 0.00 | 53 | 1009.1 |
| 20260503192538 | 12 | 198 | 0.0 | 0.0 | 0.00 | 0.00 | 0.00 | 53 | 1009.5 |
| 20260503192039 | 12 | 238 | 0.0 | 0.0 | 0.00 | 0.00 | 0.00 | 52 | 1009.6 |
| 20260503191603 | 12 | 202 | 0.0 | 0.0 | 0.00 | 0.00 | 0.00 | 53 | 1009.7 |
| 20260503191039 | 12 | 192 | 0.0 | 0.0 | 0.00 | 0.00 | 0.00 | 52 | 1009.8 |
| 20260503190537 | 11 | 265 | 0.0 | 0.0 | 0.00 | 0.00 | 0.00 | 53 | 1009.8 |
| 20260503190036 | 11 | 250 | 0.0 | 0.0 | 0.00 | 0.00 | 0.00 | 53 | 1009.9 |
| 20260503185535 | 11 | 235 | 0.0 | 0.0 | 0.00 | 0.00 | 0.00 | 52 | 1010.0 |
| 20260503185036 | 12 | 205 | 0.0 | 0.0 | 0.00 | 0.00 | 0.00 | 50 | 1010.0 |
| 20260503184537 | 12 | 221 | 0.0 | 0.0 | 0.00 | 0.00 | 0.00 | 50 | 1010.0 |
| 20260503184035 | 12 | 280 | 0.0 | 0.0 | 0.00 | 0.00 | 0.00 | 48 | 1009.9 |
| 20260503183535 | 12 | 246 | 0.0 | 0.0 | 0.00 | 0.00 | 0.00 | 48 | 1010.0 |
| 20260503183033 | 12 | 257 | 0.0 | 0.0 | 0.00 | 0.00 | 0.00 | 47 | 1010.0 |
| 20260503182534 | 12 | 211 | 0.0 | 0.0 | 0.00 | 0.00 | 0.00 | 46 | 1010.1 |
| 20260503182032 | 12 | 207 | 0.0 | 0.0 | 0.00 | 0.00 | 0.00 | 45 | 1010.2 |
| 20260503181544 | 12 | 273 | 0.0 | 0.0 | 0.00 | 0.00 | 0.00 | 45 | 1010.3 |
| 20260503181031 | 12 | 274 | 0.0 | 0.0 | 0.00 | 0.00 | 0.00 | 45 | 1010.3 |
| 20260503180530 | 11 | 235 | 0.0 | 0.0 | 0.00 | 0.00 | 0.00 | 46 | 1010.4 |
| 20260503180030 | 11 | 215 | 0.0 | 0.0 | 0.00 | 0.00 | 0.00 | 45 | 1010.5 |
| 20260503175528 | 11 | 186 | 0.0 | 0.0 | 0.00 | 0.00 | 0.00 | 44 | 1010.5 |
| 20260503175029 | 11 | 239 | 0.0 | 0.0 | 0.00 | 0.00 | 0.00 | 51 | 1010.5 |
| 20260503174526 | 11 | 161 | 0.0 | 0.0 | 0.00 | 0.00 | 0.00 | 52 | 1010.6 |
| 20260503174025 | 10 | 225 | 0.0 | 0.0 | 0.00 | 0.00 | 0.00 | 53 | 1010.8 |
| 20260503173524 | 10 | 171 | 0.0 | 0.0 | 0.00 | 0.00 | 0.00 | 55 | 1011.1 |
| 20260503173023 | 10 | 212 | 0.0 | 0.0 | 0.00 | 0.00 | 0.00 | 57 | 1011.1 |
| 20260503172522 | 10 | 236 | 0.0 | 0.0 | 0.00 | 0.00 | 0.00 | 58 | 1011.2 |
| 20260503172022 | 10 | 193 | 0.0 | 0.0 | 0.00 | 0.00 | 0.00 | 58 | 1011.2 |
| 20260503171522 | 10 | 239 | 0.0 | 0.0 | 0.00 | 0.00 | 0.00 | 61 | 1011.2 |
| 20260503171021 | 10 | 240 | 0.0 | 0.0 | 0.00 | 0.00 | 0.00 | 59 | 1011.2 |
| 20260503170524 | 10 | 278 | 0.0 | 0.0 | 0.00 | 0.00 | 0.00 | 62 | 1011.4 |
| 20260503150512 | 10 | 199 | 0.0 | 0.0 | 0.00 | 0.00 | 0.00 | 53 | 1012.5 |
| 20260503131057 | 7 | 266 | 0.0 | 0.0 | 0.00 | 0.00 | 0.00 | 74 | 1012.8 |
| 20260503130556 | 7 | 252 | 0.0 | 0.0 | 0.00 | 0.00 | 0.00 | 74 | 1012.8 |
| 20260503110542 | 1 | 201 | 0.0 | 0.0 | 0.00 | 0.00 | 0.00 | 83 | 1012.9 |
| 20260503081539 | 1 | 207 | 0.0 | 0.0 | 0.00 | 0.00 | 0.00 | 83 | 1013.3 |
| 20260503081031 | 1 | 207 | 0.0 | 0.0 | 0.00 | 0.00 | 0.00 | 83 | 1013.3 |
| 20260503080531 | 1 | 207 | 0.0 | 0.0 | 0.00 | 0.00 | 0.00 | 84 | 1013.4 |
| 20260503072528 | 0 | 207 | 0.0 | 0.0 | 0.00 | 0.00 | 0.00 | 85 | 1013.2 |
| 20260503072028 | 0 | 207 | 0.0 | 0.0 | 0.00 | 0.00 | 0.00 | 85 | 1013.2 |
| 20260503071530 | 0 | 207 | 0.0 | 0.0 | 0.00 | 0.00 | 0.00 | 85 | 1013.1 |
| 20260503071027 | 0 | 207 | 0.0 | 0.0 | 0.00 | 0.00 | 0.00 | 85 | 1013.0 |
| 20260503070526 | 0 | 207 | 0.0 | 0.0 | 0.00 | 0.00 | 0.00 | 85 | 1013.0 |
| 20260503055020 | 1 | 207 | 0.0 | 0.0 | 0.00 | 0.00 | 0.00 | 81 | 1013.4 |
| 20260503054516 | 1 | 207 | 0.0 | 0.0 | 0.00 | 0.00 | 0.00 | 81 | 1013.5 |
| 20260503054014 | 1 | 207 | 0.0 | 0.0 | 0.00 | 0.00 | 0.00 | 80 | 1013.4 |
| 20260503053513 | 1 | 207 | 0.0 | 0.0 | 0.00 | 0.00 | 0.00 | 80 | 1013.4 |
| 20260503053012 | 1 | 207 | 0.0 | 0.0 | 0.00 | 0.00 | 0.00 | 80 | 1013.5 |
| 20260503052511 | 1 | 207 | 0.0 | 0.0 | 0.00 | 0.00 | 0.00 | 80 | 1013.5 |
| 20260503052010 | 1 | 207 | 0.0 | 0.0 | 0.00 | 0.00 | 0.00 | 79 | 1013.6 |
| 20260503051509 | 1 | 207 | 0.0 | 0.0 | 0.00 | 0.00 | 0.00 | 79 | 1013.6 |
| 20260503051008 | 2 | 207 | 0.0 | 0.0 | 0.00 | 0.00 | 0.00 | 78 | 1013.6 |
| 20260503050507 | 2 | 207 | 0.0 | 0.0 | 0.00 | 0.00 | 0.00 | 78 | 1013.7 |
| 20260503050006 | 2 | 207 | 0.0 | 0.0 | 0.00 | 0.00 | 0.00 | 77 | 1013.6 |
| 20260503045506 | 2 | 207 | 0.0 | 0.0 | 0.00 | 0.00 | 0.00 | 77 | 1013.8 |
| 20260503045005 | 2 | 207 | 0.0 | 0.0 | 0.00 | 0.00 | 0.00 | 76 | 1013.8 |
| 20260503044505 | 2 | 207 | 0.0 | 0.0 | 0.00 | 0.00 | 0.00 | 76 | 1013.8 |
| 20260503044003 | 3 | 207 | 0.0 | 0.0 | 0.00 | 0.00 | 0.00 | 75 | 1013.8 |
| 20260503043502 | 3 | 207 | 0.0 | 0.0 | 0.00 | 0.00 | 0.00 | 74 | 1013.8 |
| 20260503043100 | 3 | 207 | 0.0 | 0.0 | 0.00 | 0.00 | 0.00 | 74 | 1013.8 |
| 20260503042559 | 3 | 207 | 0.0 | 0.0 | 0.00 | 0.00 | 0.00 | 73 | 1013.8 |
| 20260503042058 | 3 | 207 | 0.0 | 0.0 | 0.00 | 0.00 | 0.00 | 73 | 1013.8 |
| 20260503041558 | 4 | 207 | 0.0 | 0.0 | 0.00 | 0.00 | 0.00 | 73 | 1013.9 |
| 20260503041100 | 4 | 207 | 0.0 | 0.0 | 0.00 | 0.00 | 0.00 | 72 | 1014.0 |
| 20260503040556 | 4 | 207 | 0.0 | 0.0 | 0.00 | 0.00 | 0.00 | 72 | 1014.0 |
| 20260503040056 | 4 | 207 | 0.0 | 0.0 | 0.00 | 0.00 | 0.00 | 72 | 1013.9 |
| 20260503035555 | 4 | 207 | 0.0 | 0.0 | 0.00 | 0.00 | 0.03 | 72 | 1013.9 |
| 20260503035055 | 5 | 207 | 0.0 | 0.0 | 0.00 | 0.00 | 0.03 | 72 | 1014.0 |
| 20260503034554 | 5 | 207 | 0.0 | 0.0 | 0.00 | 0.00 | 0.03 | 72 | 1013.9 |
| 20260503034054 | 5 | 207 | 0.0 | 0.0 | 0.00 | 0.00 | 0.03 | 72 | 1013.9 |
| 20260503033553 | 5 | 207 | 0.0 | 0.0 | 0.00 | 0.00 | 0.03 | 72 | 1013.9 |
| 20260503033056 | 5 | 207 | 0.0 | 0.0 | 0.00 | 0.00 | 0.03 | 72 | 1013.9 |
| 20260503032553 | 5 | 207 | 0.0 | 0.0 | 0.00 | 0.00 | 0.03 | 72 | 1014.0 |
| 20260503032053 | 5 | 207 | 0.0 | 0.0 | 0.00 | 0.00 | 0.03 | 72 | 1013.9 |
| 20260503031553 | 5 | 207 | 0.0 | 0.0 | 0.00 | 0.00 | 0.03 | 72 | 1013.9 |
| 20260503031053 | 5 | 207 | 0.0 | 0.0 | 0.00 | 0.00 | 0.03 | 71 | 1013.9 |
| 20260503030553 | 5 | 207 | 0.0 | 0.0 | 0.00 | 0.00 | 0.03 | 71 | 1013.9 |
| 20260503030052 | 5 | 207 | 0.0 | 0.0 | 0.00 | 0.00 | 0.03 | 71 | 1014.0 |
| 20260503025552 | 5 | 207 | 0.0 | 0.0 | 0.00 | 0.00 | 0.03 | 71 | 1014.0 |
| 20260503025052 | 5 | 207 | 0.0 | 0.0 | 0.00 | 0.00 | 0.03 | 71 | 1014.1 |
| 20260503024552 | 5 | 207 | 0.0 | 0.0 | 0.00 | 0.00 | 0.03 | 70 | 1014.2 |
| 20260503024052 | 5 | 207 | 0.0 | 0.0 | 0.00 | 0.00 | 0.03 | 70 | 1014.2 |
| 20260503023552 | 5 | 207 | 0.0 | 0.0 | 0.00 | 0.00 | 0.03 | 70 | 1014.3 |
| 20260503023055 | 5 | 207 | 0.0 | 0.0 | 0.00 | 0.00 | 0.03 | 70 | 1014.2 |
| 20260503022550 | 5 | 207 | 0.0 | 0.0 | 0.00 | 0.00 | 0.03 | 69 | 1014.3 |
| 20260503022050 | 5 | 217 | 0.0 | 0.0 | 0.00 | 0.00 | 0.03 | 69 | 1014.3 |
| 20260503021552 | 5 | 217 | 0.0 | 0.0 | 0.00 | 0.00 | 0.03 | 69 | 1014.3 |
| 20260503021050 | 5 | 217 | 0.0 | 0.0 | 0.00 | 0.00 | 0.03 | 69 | 1014.4 |
| 20260503020551 | 5 | 217 | 0.0 | 0.0 | 0.00 | 0.00 | 0.03 | 68 | 1014.5 |
| 20260503020051 | 5 | 217 | 0.0 | 0.0 | 0.00 | 0.00 | 0.03 | 68 | 1014.4 |
| 20260503015550 | 5 | 217 | 0.0 | 0.0 | 0.00 | 0.00 | 0.03 | 69 | 1014.3 |
| 20260503015049 | 5 | 217 | 0.0 | 0.0 | 0.00 | 0.00 | 0.03 | 70 | 1014.3 |